Location: Most
(50.5133°N, 13.6207°E)
Time: 09:48:08
(UTC+01:00)

Oscar 11 - Pass Details

Date: 03 December 2021
Orbit: 611 x 625 km, 97.6° (Epoch: 26 January)

Event Time Altitude Azimuth Distance (km) Brightness Sun altitude
Rises 05:37:22 0° 14° (NNE) 2,922 10.6 -19.7°
Reaches altitude 10° 05:39:35 10° 15° (NNE) 2,009 9.7 -19.3°
Maximum altitude 05:43:58 82° 102° (ESE) 637 7.1 -18.7°
Drops below altitude 10° 05:48:18 10° 192° (SSW) 1,985 9.7 -18.0°
Sets 05:50:28 0° 193° (SSW) 2,884 10.5 -17.6°
